CW2433 Weather Reports


time (UTC)temp
C
wind
direction
speed
KPH
gust
KPH
rain 1hr
cm
rain 24hr
cm
rain mn
cm
humidity
%
barometer
mb
20260509171510 23 50 3.2 14.5 0.00 0.00 0.00 31 1009.2
20260509171010 23 344 3.2 14.5 0.00 0.00 0.00 31 1009.2
20260509170510 23 288 1.6 12.9 0.00 0.00 0.00 30 1009.2
20260509165510 23 355 3.2 14.5 0.00 0.00 0.00 30 1009.2
20260509165010 23 343 6.4 14.5 0.00 0.00 0.00 30 1009.1
20260509164509 23 16 3.2 9.7 0.00 0.00 0.00 31 1009.0
20260509164010 22 161 3.2 14.5 0.00 0.00 0.00 32 1009.0
20260509163010 22 242 4.8 16.1 0.00 0.00 0.00 33 1009.1
20260509162510 22 336 4.8 16.1 0.00 0.00 0.00 33 1009.2
20260509162010 22 284 8.0 16.1 0.00 0.00 0.00 32 1009.1
20260509161512 22 346 9.7 16.1 0.00 0.00 0.00 31 1009.1
20260509161009 21 297 1.6 14.5 0.00 0.00 0.00 34 1009.1
20260509160509 21 248 6.4 14.5 0.00 0.00 0.00 33 1009.1
20260509160009 21 354 4.8 19.3 0.00 0.00 0.00 34 1009.3
20260509155509 21 312 8.0 22.5 0.00 0.00 0.00 33 1009.4
20260509154509 21 307 4.8 20.9 0.00 0.00 0.00 33 1009.8
20260509154009 20 302 3.2 19.3 0.00 0.00 0.00 36 1009.8
20260509153509 20 354 11.3 19.3 0.00 0.00 0.00 34 1009.9
20260509153009 20 333 9.7 19.3 0.00 0.00 0.00 34 1009.9
20260509152509 20 323 3.2 19.3 0.00 0.00 0.00 39 1009.7
20260509152009 19 286 3.2 22.5 0.00 0.00 0.00 40 1009.7
20260509151509 19 346 12.9 22.5 0.00 0.00 0.00 39 1009.8
20260509145509 19 338 16.1 32.2 0.00 0.00 0.00 42 1009.5
20260509144509 18 321 4.8 19.3 0.00 0.00 0.00 45 1009.1
20260509144009 18 213 1.6 4.8 0.00 0.00 0.00 45 1008.2
20260509143509 17 211 1.6 4.8 0.00 0.00 0.00 46 1008.3
20260509142509 17 138 1.6 3.2 0.00 0.00 0.00 50 1008.3
20260509142009 16 138 0.0 3.2 0.00 0.00 0.00 49 1008.4
20260509141009 16 137 0.0 4.8 0.00 0.00 0.00 55 1008.6
20260509140509 16 138 0.0 4.8 0.00 0.00 0.00 57 1008.7
20260509140010 16 138 1.6 4.8 0.00 0.00 0.00 58 1008.6
20260509135509 16 138 1.6 4.8 0.00 0.00 0.00 57 1008.5
20260509135009 15 137 0.0 3.2 0.00 0.00 0.00 59 1008.5
20260509134509 15 138 1.6 3.2 0.00 0.00 0.00 60 1008.4
20260509133509 15 137 0.0 3.2 0.00 0.00 0.00 64 1008.6
20260509133010 14 138 1.6 3.2 0.00 0.00 0.00 64 1008.5
20260509132509 13 138 1.6 3.2 0.00 0.00 0.00 66 1008.5
20260509132009 13 138 1.6 3.2 0.00 0.00 0.00 68 1008.7
20260509131009 12 137 1.6 3.2 0.00 0.00 0.00 70 1008.7
20260509130010 12 138 1.6 4.8 0.00 0.00 0.00 73 1008.5
20260509125510 11 138 1.6 4.8 0.00 0.00 0.00 74 1008.6
20260509125010 11 127 1.6 4.8 0.00 0.00 0.00 75 1008.7
20260509124510 11 331 1.6 3.2 0.00 0.00 0.00 77 1008.7
20260509124010 10 330 1.6 3.2 0.00 0.00 0.00 78 1008.7
20260509123010 9 331 0.0 1.6 0.00 0.00 0.00 79 1008.6
20260509122510 8 331 0.0 1.6 0.00 0.00 0.00 80 1008.5
20260509122010 8 330 1.6 1.6 0.00 0.00 0.00 80 1008.6
20260509120510 8 333 0.0 1.6 0.00 0.00 0.00 79 1008.5
20260509120010 7 0 0.0 1.6 0.00 0.00 0.00 79 1008.4
20260509115510 7 327 0.0 1.6 0.00 0.00 0.00 79 1008.4
20260509114009 7 330 0.0 0.0 0.00 0.00 0.00 77 1008.3
20260509113509 7 339 0.0 0.0 0.00 0.00 0.00 77 1008.3
20260509113009 7 334 0.0 0.0 0.00 0.00 0.00 77 1008.3
20260509112509 7 334 0.0 0.0 0.00 0.00 0.00 76 1008.3
20260509112009 7 334 0.0 0.0 0.00 0.00 0.00 76 1008.2
20260509111509 7 333 0.0 0.0 0.00 0.00 0.00 75 1008.1
20260509111009 7 333 0.0 0.0 0.00 0.00 0.00 74 1007.9
20260509110509 7 331 0.0 0.0 0.00 0.00 0.00 74 1008.0
20260509110008 8 317 0.0 0.0 0.00 0.00 0.00 74 1008.0
20260509105509 8 321 0.0 0.0 0.00 0.00 0.00 74 1008.1
20260509105009 8 322 0.0 0.0 0.00 0.00 0.00 74 1008.2
20260509104509 8 323 0.0 0.0 0.00 0.00 0.00 73 1008.1
20260509104009 8 323 0.0 0.0 0.00 0.00 0.00 73 1008.1
20260509103509 8 324 0.0 0.0 0.00 0.00 0.00 73 1008.2
20260509103010 8 326 0.0 0.0 0.00 0.00 0.00 73 1008.2
20260509102509 8 332 0.0 0.0 0.00 0.00 0.00 73 1008.1
20260509102009 8 326 0.0 0.0 0.00 0.00 0.00 73 1008.0
20260509101509 8 300 0.0 0.0 0.00 0.00 0.00 72 1008.0
20260509101009 8 0 0.0 0.0 0.00 0.00 0.00 71 1008.0
20260509100509 8 303 0.0 0.0 0.00 0.00 0.00 71 1008.0
20260509100009 8 300 0.0 0.0 0.00 0.00 0.00 70 1008.0
20260509095509 8 301 0.0 0.0 0.00 0.00 0.00 69 1008.1
20260509095009 8 303 0.0 0.0 0.00 0.00 0.00 68 1007.9
20260509094509 8 300 0.0 0.0 0.00 0.00 0.00 66 1007.9
20260509094009 8 306 0.0 0.0 0.00 0.00 0.00 66 1007.9
20260509093509 9 306 0.0 0.0 0.00 0.00 0.00 65 1007.8
20260509093012 9 307 0.0 0.0 0.00 0.00 0.00 64 1007.8
20260509092509 9 308 0.0 0.0 0.00 0.00 0.00 64 1007.8
20260509092009 9 312 0.0 0.0 0.00 0.00 0.00 63 1007.8
20260509091510 9 317 0.0 0.0 0.00 0.00 0.00 63 1007.9
20260509091009 10 0 0.0 0.0 0.00 0.00 0.00 63 1007.8
20260509090509 10 318 0.0 0.0 0.00 0.00 0.00 60 1007.7
20260509090010 10 319 0.0 0.0 0.00 0.00 0.00 60 1007.7
20260509085510 10 321 0.0 0.0 0.00 0.00 0.00 60 1007.7
20260509085010 10 310 0.0 0.0 0.00 0.00 0.00 60 1007.6
20260509084010 10 0 0.0 0.0 0.00 0.00 0.00 60 1007.7
20260509083510 10 329 0.0 0.0 0.00 0.00 0.00 58 1007.6
20260509083010 11 0 0.0 0.0 0.00 0.00 0.00 57 1007.6
20260509082509 11 0 0.0 0.0 0.00 0.00 0.00 56 1007.6
20260509082010 11 333 0.0 0.0 0.00 0.00 0.00 56 1007.7
20260509081010 11 345 0.0 0.0 0.00 0.00 0.00 56 1007.6
20260509080510 11 354 0.0 0.0 0.00 0.00 0.00 56 1007.6
20260509080010 12 348 0.0 0.0 0.00 0.00 0.00 54 1007.6
20260509075509 12 339 0.0 0.0 0.00 0.00 0.00 53 1007.6
20260509075010 12 334 0.0 0.0 0.00 0.00 0.00 52 1007.6
20260509073010 13 355 0.0 0.0 0.00 0.00 0.00 50 1007.5
20260509072510 13 343 0.0 0.0 0.00 0.00 0.00 49 1007.5
20260509071509 14 335 0.0 0.0 0.00 0.00 0.00 47 1007.5
20260509071010 15 335 0.0 0.0 0.00 0.00 0.00 46 1007.5
20260509070009 15 336 0.0 1.6 0.00 0.00 0.00 44 1007.4
20260509065508 16 315 0.0 3.2 0.00 0.00 0.00 44 1007.5
20260509065009 16 335 1.6 4.8 0.00 0.00 0.00 42 1007.4
20260509064512 16 336 1.6 4.8 0.00 0.00 0.00 42 1007.4
20260509064009 16 336 1.6 4.8 0.00 0.00 0.00 41 1007.4
20260509062009 17 10 4.8 9.7 0.00 0.00 0.00 38 1007.5
20260509061509 17 327 3.2 9.7 0.00 0.00 0.00 38 1007.4
20260509061009 17 349 4.8 9.7 0.00 0.00 0.00 38 1007.5
20260509060509 18 348 4.8 8.0 0.00 0.00 0.00 38 1007.5
20260509060009 18 5 3.2 11.3 0.00 0.00 0.00 38 1007.4
20260509055508 18 333 3.2 11.3 0.00 0.00 0.00 37 1007.4
20260509055009 18 17 4.8 9.7 0.00 0.00 0.00 37 1007.3
20260509054510 18 314 4.8 19.3 0.00 0.00 0.00 37 1007.3
20260509054009 18 320 3.2 19.3 0.00 0.00 0.00 37 1007.3
20260509053509 18 323 4.8 19.3 0.00 0.00 0.00 37 1007.2
20260509053010 18 313 1.6 9.7 0.00 0.00 0.00 37 1007.2
20260509052509 18 335 3.2 9.7 0.00 0.00 0.00 38 1007.2
20260509052009 18 333 3.2 9.7 0.00 0.00 0.00 38 1007.2
20260509051009 18 284 1.6 4.8 0.00 0.00 0.00 38 1007.1
20260509050509 18 349 1.6 4.8 0.00 0.00 0.00 39 1007.0
20260509045513 17 259 1.6 11.3 0.00 0.00 0.00 39 1007.1
20260509045010 17 261 3.2 11.3 0.00 0.00 0.00 39 1007.1
20260509044510 17 290 3.2 4.8 0.00 0.00 0.00 39 1007.0
20260509044010 17 267 3.2 4.8 0.00 0.00 0.00 40 1007.0
20260509043010 17 314 0.0 9.7 0.00 0.00 0.00 40 1007.0
20260509042510 16 276 3.2 9.7 0.00 0.00 0.00 41 1007.0
20260509042010 16 252 1.6 4.8 0.00 0.00 0.00 42 1007.0
20260509041010 16 246 3.2 9.7 0.00 0.00 0.00 41 1007.0
20260509040510 16 263 3.2 9.7 0.00 0.00 0.00 42 1007.0
20260509040010 16 265 3.2 4.8 0.00 0.00 0.00 42 1007.1
20260509035510 16 257 3.2 4.8 0.00 0.00 0.00 42 1007.1
20260509035010 16 0 0.0 3.2 0.00 0.00 0.00 42 1007.1
20260509034009 17 0 0.0 0.0 0.00 0.00 0.00 41 1007.0
20260509033009 17 0 0.0 0.0 0.00 0.00 0.00 40 1006.9
20260509032508 17 0 0.0 0.0 0.00 0.00 0.00 40 1006.8
20260509032009 17 0 0.0 0.0 0.00 0.00 0.00 41 1006.8
20260509031509 17 0 0.0 0.0 0.00 0.00 0.00 39 1006.8
20260509031009 17 0 0.0 1.6 0.00 0.00 0.00 40 1006.6
20260509030509 18 0 0.0 1.6 0.00 0.00 0.00 40 1006.6
20260509030009 18 0 0.0 0.0 0.00 0.00 0.00 40 1006.8
20260509025509 18 0 0.0 1.6 0.00 0.00 0.00 41 1006.8
20260509025009 18 0 0.0 4.8 0.00 0.00 0.00 41 1006.7
20260509024509 18 0 0.0 4.8 0.00 0.00 0.00 39 1006.7
20260509024009 18 0 1.6 4.8 0.00 0.00 0.00 40 1006.7
20260509023509 19 245 0.0 1.6 0.00 0.00 0.00 35 1006.5
20260509023009 19 245 0.0 0.0 0.00 0.00 0.00 34 1006.4
20260509022508 20 245 0.0 0.0 0.00 0.00 0.00 34 1006.1
20260509022009 20 245 0.0 0.0 0.00 0.00 0.00 32 1006.1
20260509021509 20 245 0.0 0.0 0.00 0.00 0.00 32 1006.1
20260509021009 20 245 0.0 0.0 0.00 0.00 0.00 32 1006.0
20260509020008 21 245 0.0 1.6 0.00 0.00 0.00 31 1006.0
20260509015509 21 245 0.0 1.6 0.00 0.00 0.00 31 1005.9
20260509015009 22 245 0.0 3.2 0.00 0.00 0.00 31 1005.9
20260509014513 22 245 0.0 3.2 0.00 0.00 0.00 31 1005.8
20260509014009 22 252 0.0 1.6 0.00 0.00 0.00 30 1005.8
20260509013509 23 252 0.0 4.8 0.00 0.00 0.00 29 1005.7
20260509013010 23 252 1.6 4.8 0.00 0.00 0.00 30 1005.7
20260509012009 23 258 1.6 3.2 0.00 0.00 0.00 28 1005.5
20260509011510 24 273 1.6 4.8 0.00 0.00 0.00 27 1005.5
20260509011009 24 286 1.6 4.8 0.00 0.00 0.00 27 1005.4
20260509010508 25 305 0.0 8.0 0.00 0.00 0.00 28 1005.4
20260509005509 25 287 0.0 4.8 0.00 0.00 0.00 27 1005.4
20260509005009 25 321 1.6 4.8 0.00 0.00 0.00 27 1005.4
20260509004509 25 332 3.2 8.0 0.00 0.00 0.00 28 1005.3
20260509004009 25 249 3.2 8.0 0.00 0.00 0.00 29 1005.3
20260509003510 26 240 3.2 8.0 0.00 0.00 0.00 29 1005.1
20260509003010 26 240 0.0 4.8 0.00 0.00 0.00 30 1005.1
20260509002508 26 240 1.6 4.8 0.00 0.00 0.00 30 1005.1
20260509002010 25 255 0.0 4.8 0.00 0.00 0.00 30 1005.0
20260509001510 25 231 1.6 4.8 0.00 0.00 0.00 30 1005.0
20260509001010 25 214 1.6 4.8 0.00 0.00 0.00 30 1005.1
20260508235509 25 206 1.6 4.8 0.00 0.00 0.00 31 1005.2
20260508234509 25 239 0.0 8.0 0.00 0.00 0.00 31 1005.2
20260508234010 25 238 3.2 8.0 0.00 0.00 0.00 29 1005.4
20260508233510 25 241 0.0 9.7 0.00 0.00 0.00 32 1005.4
20260508233010 25 241 1.6 9.7 0.00 0.00 0.00 31 1005.4
20260508232510 25 259 0.0 3.2 0.00 0.00 0.00 32 1005.5
20260508232010 25 259 1.6 8.0 0.00 0.00 0.00 33 1005.5
20260508230510 24 162 1.6 8.0 0.00 0.00 0.00 32 1005.6
20260508230010 24 128 1.6 4.8 0.00 0.00 0.00 32 1005.6
20260508225510 24 18 0.0 4.8 0.00 0.00 0.00 31 1005.7
20260508225009 24 5 0.0 4.8 0.00 0.00 0.00 33 1005.7
20260508224509 23 144 1.6 9.7 0.00 0.00 0.00 32 1005.8
20260508224009 23 99 1.6 9.7 0.00 0.00 0.00 32 1005.8
20260508223509 23 129 4.8 9.7 0.00 0.00 0.00 33 1005.9
20260508223009 24 71 1.6 19.3 0.00 0.00 0.00 32 1006.0
20260508222509 24 136 8.0 19.3 0.00 0.00 0.00 33 1006.1
20260508222009 25 87 8.0 19.3 0.00 0.00 0.00 33 1006.0
20260508221509 25 305 3.2 11.3 0.00 0.00 0.00 28 1006.1
20260508221009 26 257 4.8 9.7 0.00 0.00 0.00 28 1005.9
20260508220009 26 273 3.2 19.3 0.00 0.00 0.00 28 1005.8
20260508215009 26 218 3.2 11.3 0.00 0.00 0.00 29 1005.8
20260508214510 26 241 1.6 11.3 0.00 0.00 0.00 29 1005.8
20260508214009 26 217 1.6 11.3 0.00 0.00 0.00 29 1005.9
20260508213509 26 261 3.2 9.7 0.00 0.00 0.00 30 1005.9
20260508212509 26 219 1.6 4.8 0.00 0.00 0.00 27 1006.0
20260508211009 26 274 0.0 4.8 0.00 0.00 0.00 28 1006.3
20260508210509 26 246 1.6 8.0 0.00 0.00 0.00 28 1006.4
20260508205509 26 15 4.8 9.7 0.00 0.00 0.00 26 1006.5
20260508205009 26 157 3.2 9.7 0.00 0.00 0.00 27 1006.5
20260508204510 26 138 1.6 8.0 0.00 0.00 0.00 28 1006.7
20260508204009 26 134 1.6 8.0 0.00 0.00 0.00 28 1006.9
20260508203010 25 311 1.6 9.7 0.00 0.00 0.00 29 1006.9
20260508202509 25 260 4.8 9.7 0.00 0.00 0.00 29 1007.0
20260508202009 25 154 4.8 8.0 0.00 0.00 0.00 27 1007.1
20260508201510 25 92 1.6 4.8 0.00 0.00 0.00 27 1007.2
20260508201010 25 59 3.2 8.0 0.00 0.00 0.00 26 1007.4
20260508200509 25 89 1.6 8.0 0.00 0.00 0.00 27 1007.5
20260508195510 25 145 3.2 4.8 0.00 0.00 0.00 26 1007.6
20260508195009 25 207 3.2 8.0 0.00 0.00 0.00 31 1007.6
20260508194510 25 186 4.8 11.3 0.00 0.00 0.00 28 1007.7
20260508193510 25 154 3.2 14.5 0.00 0.00 0.00 28 1007.8
20260508192510 25 133 3.2 9.7 0.00 0.00 0.00 27 1007.9
20260508191510 25 172 4.8 14.5 0.00 0.00 0.00 28 1008.1
20260508190510 25 159 3.2 8.0 0.00 0.00 0.00 28 1008.1
20260508190010 25 207 1.6 4.8 0.00 0.00 0.00 30 1008.1
20260508185510 25 185 3.2 4.8 0.00 0.00 0.00 29 1008.2
20260508185010 25 284 1.6 4.8 0.00 0.00 0.00 30 1008.2
20260508184510 25 174 1.6 11.3 0.00 0.00 0.00 29 1008.2
20260508184010 25 161 4.8 11.3 0.00 0.00 0.00 29 1008.2
20260508183510 25 154 1.6 12.9 0.00 0.00 0.00 30 1008.3
20260508183009 25 156 3.2 12.9 0.00 0.00 0.00 29 1008.4
20260508182509 25 120 3.2 8.0 0.00 0.00 0.00 28 1008.4
20260508181509 25 87 3.2 11.3 0.00 0.00 0.00 27 1008.7
20260508180509 24 149 1.6 8.0 0.00 0.00 0.00 30 1008.7
20260508180009 24 170 3.2 4.8 0.00 0.00 0.00 29 1008.8
20260508175509 24 230 3.2 4.8 0.00 0.00 0.00 30 1008.8
20260508174509 23 183 0.0 4.8 0.00 0.00 0.00 34 1008.9
20260508174009 23 161 1.6 4.8 0.00 0.00 0.00 34 1008.9
20260508173509 23 0 0.0 4.8 0.00 0.00 0.00 34 1009.1
20260508173009 22 9 1.6 4.8 0.00 0.00 0.00 32 1009.2
20260508172009 22 227 1.6 4.8 0.00 0.00 0.00 37 1009.3